Вернуться в каталог

DELTA 1 DEB

АктивенSSO
NORAD 9570·DEBRIS·🇺🇸 United States

Запущен Nov 6, 1973 с Vandenberg Space Force Base

Loading…

Ближайшие Пролёты (ближайшие 24 часа)

TLE

СвежийSource: Space-Track

Эпоха: Sep 14, 2026, 13:53 UTC

1 09570U 73086FX  26257.57858032 -.00000029  00000-0  10528-3 0  9996
2 09570 101.7481 195.6092 0067427 210.2014 326.3769 12.41297282388961

Отслеживайте DELTA 1 DEB в реальном времени с AllMySat

Download on the App Store